Tracking 28052 objects as of 24-Sep-2023
HD Live streaming from Space Station
objects crossing your sky now

STARLINK-30300

Track STARLINK-30300 now!
10-day predictions
STARLINK-30300 is classified as:


NORAD ID: 57715
Int'l Code: 2023-129T
Perigee: 469.2 km
Apogee: 471.5 km
Inclination: 43.0 °
Period: 93.9 minutes
Semi major axis: 6841 km
RCS: Unknown
Launch date: August 27, 2023
Source: United States (US)
Launch site: AIR FORCE EASTERN TEST RANGE (AFETR)
Your satellite tracking list
Your tracking list is empty




NASA's NSSDC Master Catalog

Two Line Element Set (TLE):
1 57715U 23129T   23267.16668981 -.02299444  00000-0 -76203-1 0  9992
2 57715  43.0001 318.5354 0001671 291.8135 219.9125 15.34230374  5622
Source of the keplerian elements: AFSPC